Time,TemperatureF,DewpointF,PressureIn,WindDirection,WindDirectionDegrees,WindSpeedMPH,WindSpeedGustMPH,Humidity,HourlyPrecipIn,Conditions,Clouds,dailyrainin,SoftwareType,DateUTC
2013-03-20 00:03:00,66.0,61.0,29.98,NNW,341,1.0,3.0,85,0.00,,,0.00,,2013-03-20 04:03:00,
2013-03-20 00:12:00,66.0,61.0,29.98,NNW,341,1.0,3.0,85,0.00,,,0.00,,2013-03-20 04:12:00,
2013-03-20 00:23:00,66.0,61.0,29.98,WSW,255,3.0,4.0,85,0.00,,,0.00,,2013-03-20 04:23:00,
2013-03-20 00:32:00,67.0,62.0,29.98,North,355,2.0,7.0,84,0.00,,,0.00,,2013-03-20 04:32:00,
2013-03-20 00:43:00,67.0,62.0,29.98,North,355,2.0,7.0,84,0.00,,,0.00,,2013-03-20 04:43:00,
2013-03-20 00:53:00,67.0,62.0,29.98,WNW,290,0.0,4.0,84,0.00,,,0.00,,2013-03-20 04:53:00,
2013-03-20 01:03:00,66.0,61.0,29.98,NNW,327,0.0,4.0,85,0.00,,,0.00,,2013-03-20 05:03:00,
2013-03-20 01:13:00,65.0,61.0,29.98,West,272,1.0,4.0,86,0.00,,,0.00,,2013-03-20 05:13:00,
2013-03-20 01:23:00,65.0,61.0,29.98,West,272,1.0,4.0,86,0.00,,,0.00,,2013-03-20 05:23:00,
2013-03-20 01:32:00,65.0,61.0,29.98,West,272,1.0,4.0,86,0.00,,,0.00,,2013-03-20 05:32:00,
2013-03-20 01:42:00,65.0,61.0,29.98,West,272,1.0,4.0,86,0.00,,,0.00,,2013-03-20 05:42:00,
2013-03-20 01:53:00,65.0,60.0,29.97,North,360,0.0,3.0,85,0.00,,,0.00,,2013-03-20 05:53:00,
2013-03-20 02:03:00,64.0,60.0,29.97,WNW,302,0.0,4.0,87,0.00,,,0.00,,2013-03-20 06:03:00,
2013-03-20 02:13:00,64.0,60.0,29.97,WNW,302,0.0,4.0,87,0.00,,,0.00,,2013-03-20 06:13:00,
2013-03-20 02:22:00,63.0,59.0,29.96,NW,321,0.0,3.0,88,0.00,,,0.00,,2013-03-20 06:22:00,
2013-03-20 02:32:00,63.0,59.0,29.95,NNW,331,0.0,3.0,88,0.00,,,0.00,,2013-03-20 06:32:00,
2013-03-20 02:43:00,63.0,59.0,29.95,NNW,331,0.0,3.0,88,0.00,,,0.00,,2013-03-20 06:43:00,
2013-03-20 02:53:00,62.0,59.0,29.96,NNW,331,0.0,1.0,89,0.00,,,0.00,,2013-03-20 06:53:00,
2013-03-20 03:02:00,62.0,59.0,29.95,NNW,338,0.0,3.0,91,0.00,,,0.00,,2013-03-20 07:02:00,
2013-03-20 03:12:00,62.0,59.0,29.95,NNW,338,0.0,3.0,91,0.00,,,0.00,,2013-03-20 07:12:00,
2013-03-20 03:22:00,62.0,59.0,29.94,NNW,348,0.0,2.0,90,0.00,,,0.00,,2013-03-20 07:22:00,
2013-03-20 03:32:00,62.0,59.0,29.94,North,360,0.0,2.0,91,0.00,,,0.00,,2013-03-20 07:32:00,
2013-03-20 03:42:00,62.0,59.0,29.94,North,360,0.0,2.0,91,0.00,,,0.00,,2013-03-20 07:42:00,
2013-03-20 03:52:00,62.0,60.0,29.94,NNE,21,1.0,4.0,92,0.00,,,0.00,,2013-03-20 07:52:00,
2013-03-20 04:02:00,62.0,60.0,29.94,NNE,21,1.0,4.0,92,0.00,,,0.00,,2013-03-20 08:02:00,
2013-03-20 04:13:00,62.0,60.0,29.94,NNE,21,1.0,4.0,92,0.00,,,0.00,,2013-03-20 08:13:00,
2013-03-20 04:22:00,63.0,60.0,29.93,NNW,331,1.0,5.0,91,0.00,,,0.00,,2013-03-20 08:22:00,
2013-03-20 04:32:00,63.0,60.0,29.92,NNE,19,2.0,5.0,91,0.00,,,0.00,,2013-03-20 08:32:00,
2013-03-20 04:42:00,63.0,60.0,29.92,NNE,19,2.0,5.0,91,0.00,,,0.00,,2013-03-20 08:42:00,
2013-03-20 04:52:00,62.0,60.0,29.93,North,355,0.0,4.0,92,0.00,,,0.00,,2013-03-20 08:52:00,
2013-03-20 05:02:00,63.0,61.0,29.93,NNE,14,2.0,5.0,92,0.00,,,0.00,,2013-03-20 09:02:00,
2013-03-20 05:12:00,63.0,61.0,29.93,NNE,14,2.0,5.0,92,0.00,,,0.00,,2013-03-20 09:12:00,
2013-03-20 05:22:00,63.0,61.0,29.92,NE,36,1.0,4.0,92,0.00,,,0.00,,2013-03-20 09:22:00,
2013-03-20 05:33:00,62.0,60.0,29.92,NNE,29,1.0,3.0,93,0.00,,,0.00,,2013-03-20 09:33:00,
2013-03-20 05:43:00,62.0,60.0,29.92,NNE,29,1.0,3.0,93,0.00,,,0.00,,2013-03-20 09:43:00,
2013-03-20 05:53:00,63.0,61.0,29.92,NE,34,1.0,4.0,93,0.00,,,0.00,,2013-03-20 09:53:00,
2013-03-20 06:03:00,63.0,61.0,29.93,NNE,30,2.0,4.0,93,0.00,,,0.00,,2013-03-20 10:03:00,
2013-03-20 06:13:00,63.0,61.0,29.93,NNE,30,2.0,4.0,93,0.00,,,0.00,,2013-03-20 10:13:00,
2013-03-20 06:23:00,63.0,61.0,29.93,NE,43,0.0,4.0,94,0.00,,,0.00,,2013-03-20 10:23:00,
2013-03-20 06:33:00,63.0,61.0,29.94,NE,43,0.0,2.0,94,0.00,,,0.00,,2013-03-20 10:33:00,
2013-03-20 06:43:00,63.0,61.0,29.94,NE,43,0.0,2.0,94,0.00,,,0.00,,2013-03-20 10:43:00,
2013-03-20 06:53:00,63.0,61.0,29.94,NE,43,0.0,1.0,94,0.00,,,0.00,,2013-03-20 10:53:00,
2013-03-20 07:03:00,63.0,61.0,29.93,ENE,70,0.0,2.0,94,0.00,,,0.00,,2013-03-20 11:03:00,
2013-03-20 07:12:00,63.0,61.0,29.93,ENE,70,0.0,2.0,94,0.00,,,0.00,,2013-03-20 11:12:00,
2013-03-20 07:22:00,63.0,62.0,29.94,ENE,65,0.0,1.0,95,0.00,,,0.00,,2013-03-20 11:22:00,
2013-03-20 07:32:00,63.0,62.0,29.95,SE,138,0.0,3.0,95,0.00,,,0.00,,2013-03-20 11:32:00,
2013-03-20 07:42:00,63.0,62.0,29.95,SE,138,0.0,3.0,95,0.00,,,0.00,,2013-03-20 11:42:00,
2013-03-20 07:52:00,64.0,63.0,29.96,ENE,74,0.0,3.0,95,0.00,,,0.00,,2013-03-20 11:52:00,
2013-03-20 08:02:00,64.0,63.0,29.96,SE,143,2.0,6.0,95,0.00,,,0.00,,2013-03-20 12:02:00,
2013-03-20 08:12:00,64.0,63.0,29.96,SE,143,2.0,6.0,95,0.00,,,0.00,,2013-03-20 12:12:00,
2013-03-20 08:22:00,65.0,64.0,29.96,NNE,15,3.0,8.0,95,0.00,,,0.00,,2013-03-20 12:22:00,
2013-03-20 08:32:00,65.0,64.0,29.94,East,79,3.0,9.0,95,0.00,,,0.00,,2013-03-20 12:32:00,
2013-03-20 08:42:00,65.0,64.0,29.94,East,79,3.0,9.0,95,0.00,,,0.00,,2013-03-20 12:42:00,
2013-03-20 08:52:00,66.0,65.0,29.94,ENE,66,2.0,7.0,95,0.00,,,0.00,,2013-03-20 12:52:00,
2013-03-20 09:03:00,66.0,65.0,29.96,East,100,1.0,7.0,95,0.00,,,0.00,,2013-03-20 13:03:00,
2013-03-20 09:12:00,66.0,65.0,29.96,East,100,1.0,7.0,95,0.00,,,0.00,,2013-03-20 13:12:00,
2013-03-20 09:22:00,67.0,66.0,29.97,East,87,3.0,7.0,95,0.00,,,0.00,,2013-03-20 13:22:00,
2013-03-20 09:32:00,67.0,65.0,29.95,East,90,4.0,8.0,94,0.00,,,0.00,,2013-03-20 13:32:00,
2013-03-20 09:42:00,67.0,65.0,29.95,East,90,4.0,8.0,94,0.00,,,0.00,,2013-03-20 13:42:00,
2013-03-20 09:53:00,68.0,66.0,29.95,East,88,2.0,7.0,93,0.00,,,0.00,,2013-03-20 13:53:00,
2013-03-20 10:03:00,68.0,66.0,29.95,ESE,110,5.0,9.0,92,0.00,,,0.00,,2013-03-20 14:03:00,
2013-03-20 10:12:00,68.0,66.0,29.95,ESE,110,5.0,9.0,92,0.00,,,0.00,,2013-03-20 14:12:00,
2013-03-20 10:23:00,69.0,66.0,29.96,East,99,3.0,9.0,91,0.00,,,0.00,,2013-03-20 14:23:00,
2013-03-20 10:34:00,70.0,66.0,29.95,SE,140,3.0,7.0,88,0.00,,,0.00,,2013-03-20 14:34:00,
2013-03-20 10:42:00,70.0,66.0,29.95,SE,140,3.0,7.0,88,0.00,,,0.00,,2013-03-20 14:42:00,
2013-03-20 10:53:00,71.0,66.0,29.96,SE,132,5.0,7.0,85,0.00,,,0.00,,2013-03-20 14:53:00,
2013-03-20 11:03:00,71.0,66.0,29.97,SE,136,2.0,6.0,85,0.00,,,0.00,,2013-03-20 15:03:00,
2013-03-20 11:12:00,71.0,66.0,29.97,SE,136,3.0,6.0,85,0.00,,,0.00,,2013-03-20 15:12:00,
2013-03-20 11:22:00,71.0,66.0,29.97,SE,136,3.0,6.0,85,0.00,,,0.00,,2013-03-20 15:22:00,
2013-03-20 11:33:00,71.0,66.0,29.97,South,186,1.0,5.0,84,0.00,,,0.00,,2013-03-20 15:33:00,
2013-03-20 11:43:00,71.0,66.0,29.97,South,186,1.0,5.0,84,0.00,,,0.00,,2013-03-20 15:43:00,
2013-03-20 11:53:00,72.0,67.0,29.96,South,184,0.0,4.0,84,0.00,,,0.00,,2013-03-20 15:53:00,
2013-03-20 12:03:00,71.0,66.0,29.97,SE,140,1.0,3.0,83,0.00,,,0.00,,2013-03-20 16:03:00,
2013-03-20 12:13:00,71.0,66.0,29.97,SE,140,1.0,3.0,83,0.00,,,0.00,,2013-03-20 16:13:00,
2013-03-20 12:23:00,72.0,66.0,29.96,WSW,250,0.0,2.0,81,0.00,,,0.00,,2013-03-20 16:23:00,
2013-03-20 12:33:00,72.0,66.0,29.95,WSW,252,1.0,3.0,82,0.00,,,0.00,,2013-03-20 16:33:00,
2013-03-20 12:43:00,72.0,66.0,29.95,WSW,252,1.0,3.0,82,0.00,,,0.00,,2013-03-20 16:43:00,
2013-03-20 12:53:00,73.0,66.0,29.95,WSW,248,0.0,3.0,79,0.00,,,0.00,,2013-03-20 16:53:00,
2013-03-20 13:03:00,73.0,66.0,29.95,West,265,3.0,7.0,79,0.00,,,0.00,,2013-03-20 17:03:00,
2013-03-20 13:12:00,73.0,66.0,29.95,West,265,3.0,7.0,79,0.00,,,0.00,,2013-03-20 17:12:00,
2013-03-20 13:22:00,73.0,66.0,29.93,West,275,4.0,6.0,79,0.00,,,0.00,,2013-03-20 17:22:00,
2013-03-20 13:32:00,73.0,66.0,29.92,WSW,252,2.0,5.0,79,0.00,,,0.00,,2013-03-20 17:32:00,
2013-03-20 13:42:00,73.0,66.0,29.92,WSW,252,2.0,5.0,79,0.00,,,0.00,,2013-03-20 17:42:00,
2013-03-20 13:53:00,73.0,65.0,29.91,WSW,255,4.0,7.0,77,0.00,,,0.00,,2013-03-20 17:53:00,
2013-03-20 14:02:00,73.0,64.0,29.91,WSW,246,3.0,8.0,74,0.00,,,0.00,,2013-03-20 18:02:00,
2013-03-20 14:12:00,73.0,64.0,29.91,WSW,246,3.0,8.0,74,0.00,,,0.00,,2013-03-20 18:12:00,
2013-03-20 14:22:00,73.0,63.0,29.91,WSW,237,7.0,16.0,71,0.00,,,0.00,,2013-03-20 18:22:00,
2013-03-20 14:33:00,73.0,62.0,29.90,West,259,4.0,10.0,69,0.00,,,0.00,,2013-03-20 18:33:00,
2013-03-20 14:43:00,73.0,62.0,29.90,West,259,4.0,10.0,69,0.00,,,0.00,,2013-03-20 18:43:00,
2013-03-20 14:53:00,73.0,61.0,29.89,West,261,4.0,15.0,67,0.00,,,0.00,,2013-03-20 18:53:00,
2013-03-20 15:02:00,73.0,62.0,29.88,WNW,288,3.0,11.0,68,0.00,,,0.00,,2013-03-20 19:02:00,
2013-03-20 15:12:00,73.0,62.0,29.88,WNW,288,3.0,11.0,68,0.00,,,0.00,,2013-03-20 19:12:00,
2013-03-20 15:23:00,73.0,61.0,29.87,NNW,337,4.0,12.0,66,0.00,,,0.00,,2013-03-20 19:23:00,
2013-03-20 15:32:00,74.0,61.0,29.86,West,265,7.0,16.0,65,0.00,,,0.00,,2013-03-20 19:32:00,
2013-03-20 15:42:00,74.0,61.0,29.86,West,265,7.0,16.0,65,0.00,,,0.00,,2013-03-20 19:42:00,
2013-03-20 15:53:00,74.0,62.0,29.86,West,268,8.0,19.0,67,0.00,,,0.00,,2013-03-20 19:53:00,
2013-03-20 16:02:00,75.0,63.0,29.85,WNW,302,5.0,12.0,67,0.00,,,0.00,,2013-03-20 20:02:00,
2013-03-20 16:13:00,75.0,63.0,29.85,WNW,302,5.0,12.0,67,0.00,,,0.00,,2013-03-20 20:13:00,
2013-03-20 16:22:00,75.0,62.0,29.84,WNW,292,7.0,20.0,63,0.00,,,0.00,,2013-03-20 20:22:00,
2013-03-20 16:32:00,74.0,61.0,29.83,WSW,245,4.0,12.0,64,0.00,,,0.00,,2013-03-20 20:32:00,
2013-03-20 16:42:00,74.0,61.0,29.83,WSW,245,4.0,12.0,64,0.00,,,0.00,,2013-03-20 20:42:00,
2013-03-20 16:53:00,74.0,61.0,29.83,WSW,252,5.0,12.0,64,0.00,,,0.00,,2013-03-20 20:53:00,
2013-03-20 17:02:00,74.0,60.0,29.82,WSW,247,6.0,12.0,61,0.00,,,0.00,,2013-03-20 21:02:00,
2013-03-20 17:12:00,74.0,60.0,29.82,WSW,247,6.0,12.0,61,0.00,,,0.00,,2013-03-20 21:12:00,
2013-03-20 17:22:00,73.0,59.0,29.83,WSW,257,7.0,14.0,62,0.00,,,0.00,,2013-03-20 21:22:00,
2013-03-20 17:33:00,72.0,59.0,29.83,West,269,4.0,14.0,64,0.00,,,0.00,,2013-03-20 21:33:00,
2013-03-20 17:42:00,72.0,59.0,29.83,West,269,4.0,14.0,64,0.00,,,0.00,,2013-03-20 21:42:00,
2013-03-20 17:53:00,72.0,60.0,29.83,WSW,252,3.0,8.0,66,0.00,,,0.00,,2013-03-20 21:53:00,
2013-03-20 18:03:00,72.0,60.0,29.83,West,262,4.0,10.0,67,0.00,,,0.00,,2013-03-20 22:03:00,
2013-03-20 18:13:00,72.0,60.0,29.83,West,262,4.0,10.0,67,0.00,,,0.00,,2013-03-20 22:13:00,
2013-03-20 18:23:00,72.0,60.0,29.83,West,262,4.0,10.0,67,0.00,,,0.00,,2013-03-20 22:23:00,
2013-03-20 18:33:00,71.0,59.0,29.84,WSW,244,4.0,13.0,66,0.00,,,0.00,,2013-03-20 22:33:00,
2013-03-20 18:42:00,71.0,59.0,29.84,WSW,244,4.0,13.0,66,0.00,,,0.00,,2013-03-20 22:42:00,
2013-03-20 18:53:00,70.0,59.0,29.85,West,267,6.0,14.0,67,0.00,,,0.00,,2013-03-20 22:53:00,
2013-03-20 19:03:00,70.0,59.0,29.87,WNW,285,8.0,14.0,67,0.00,,,0.00,,2013-03-20 23:03:00,
2013-03-20 19:12:00,70.0,59.0,29.87,WNW,285,8.0,14.0,67,0.00,,,0.00,,2013-03-20 23:12:00,
2013-03-20 19:23:00,69.0,59.0,29.88,WNW,287,7.0,17.0,71,0.00,,,0.00,,2013-03-20 23:23:00,
2013-03-20 19:32:00,69.0,61.0,29.89,WNW,296,7.0,14.0,75,0.00,,,0.00,,2013-03-20 23:32:00,
2013-03-20 19:42:00,69.0,61.0,29.89,WNW,296,7.0,14.0,75,0.00,,,0.00,,2013-03-20 23:42:00,
2013-03-20 19:53:00,67.0,61.0,29.89,WNW,286,7.0,16.0,81,0.00,,,0.00,,2013-03-20 23:53:00,
2013-03-20 20:03:00,66.0,62.0,29.89,WNW,297,7.0,16.0,86,0.01,,,0.01,,2013-03-21 00:03:00,
2013-03-20 20:13:00,66.0,62.0,29.89,WNW,297,7.0,16.0,86,0.01,,,0.01,,2013-03-21 00:13:00,
2013-03-20 20:23:00,65.0,62.0,29.90,WNW,287,4.0,12.0,90,0.01,,,0.01,,2013-03-21 00:23:00,
2013-03-20 20:33:00,64.0,61.0,29.90,WSW,254,5.0,11.0,91,0.02,,,0.02,,2013-03-21 00:33:00,
2013-03-20 20:42:00,64.0,61.0,29.90,WSW,254,5.0,11.0,91,0.02,,,0.02,,2013-03-21 00:42:00,
2013-03-20 20:53:00,64.0,62.0,29.90,West,281,4.0,10.0,93,0.02,,,0.02,,2013-03-21 00:53:00,
2013-03-20 21:02:00,64.0,62.0,29.91,WSW,252,5.0,11.0,93,0.01,,,0.02,,2013-03-21 01:02:00,
2013-03-20 21:12:00,64.0,62.0,29.91,WSW,252,5.0,11.0,93,0.01,,,0.02,,2013-03-21 01:12:00,
2013-03-20 21:22:00,64.0,62.0,29.91,WNW,300,3.0,11.0,93,0.01,,,0.02,,2013-03-21 01:22:00,
2013-03-20 21:33:00,63.0,61.0,29.88,NW,319,2.0,9.0,93,0.00,,,0.02,,2013-03-21 01:33:00,
2013-03-20 21:42:00,63.0,61.0,29.88,NW,319,2.0,9.0,93,0.00,,,0.02,,2013-03-21 01:42:00,
2013-03-20 21:53:00,63.0,61.0,29.88,West,279,2.0,4.0,93,0.00,,,0.02,,2013-03-21 01:53:00,
2013-03-20 22:02:00,63.0,61.0,29.89,NNW,331,3.0,7.0,94,0.00,,,0.02,,2013-03-21 02:02:00,
2013-03-20 22:13:00,63.0,61.0,29.89,NNW,331,3.0,7.0,94,0.00,,,0.02,,2013-03-21 02:13:00,
2013-03-20 22:22:00,63.0,61.0,29.90,West,270,2.0,5.0,94,0.00,,,0.02,,2013-03-21 02:22:00,
2013-03-20 22:33:00,63.0,61.0,29.90,West,270,2.0,5.0,94,0.00,,,0.02,,2013-03-21 02:33:00,
2013-03-20 22:42:00,63.0,61.0,29.90,West,270,2.0,5.0,94,0.00,,,0.02,,2013-03-21 02:42:00,
2013-03-20 22:52:00,63.0,61.0,29.90,West,270,2.0,5.0,94,0.00,,,0.02,,2013-03-21 02:52:00,
2013-03-20 23:02:00,61.0,58.0,29.89,NE,36,0.0,4.0,91,0.00,,,0.02,,2013-03-21 03:02:00,
2013-03-20 23:12:00,61.0,58.0,29.89,NE,36,0.0,4.0,91,0.00,,,0.02,,2013-03-21 03:12:00,
2013-03-20 23:22:00,60.0,58.0,29.89,NE,36,0.0,2.0,92,0.00,,,0.02,,2013-03-21 03:22:00,
2013-03-20 23:33:00,59.0,57.0,29.88,NE,36,0.0,0.0,93,0.00,,,0.02,,2013-03-21 03:33:00,
2013-03-20 23:43:00,59.0,57.0,29.88,NE,36,0.0,0.0,93,0.00,,,0.02,,2013-03-21 03:43:00,
2013-03-20 23:53:00,58.0,56.0,29.88,NE,36,0.0,0.0,94,0.00,,,0.02,,2013-03-21 03:53:00,